| time (UTC) | temp F | wind direction | speed MPH | gust MPH | rain 1hr in | rain 24hr in | rain mn in | humidity % | barometer mb |
| 20260504172646 | 69 | 160 | 8.0 | 13.0 | 0.00 | 0.00 | 0.00 | 33 | 1009.1 |
| 20260504171620 | 69 | 186 | 8.0 | 11.0 | 0.00 | 0.00 | 0.00 | 37 | 1009.2 |
| 20260504170618 | 68 | 140 | 7.0 | 10.0 | 0.00 | 0.00 | 0.00 | 39 | 1009.4 |
| 20260504150630 | 60 | 24 | 2.0 | 5.0 | 0.00 | 0.00 | 0.00 | 42 | 1009.7 |
| 20260504140618 | 53 | 341 | 3.0 | 6.0 | 0.00 | 0.00 | 0.00 | 45 | 1010.2 |
| 20260504130623 | 48 | 323 | 1.0 | 4.0 | 0.00 | 0.00 | 0.00 | 55 | 1009.9 |
| 20260504110613 | 46 | 238 | 2.0 | 17.0 | 0.00 | 0.00 | 0.00 | 55 | 1009.5 |
| 20260504081629 | 54 | 284 | 6.0 | 9.0 | 0.00 | 0.00 | 0.00 | 42 | 1008.7 |
| 20260504080616 | 54 | 307 | 7.0 | 10.0 | 0.00 | 0.00 | 0.00 | 42 | 1008.8 |
| 20260504050633 | 55 | 304 | 2.0 | 4.0 | 0.00 | 0.00 | 0.00 | 40 | 1009.7 |
| 20260504045618 | 54 | 296 | 1.0 | 4.0 | 0.00 | 0.00 | 0.00 | 42 | 1009.7 |
| 20260504044628 | 53 | 283 | 2.0 | 5.0 | 0.00 | 0.00 | 0.00 | 41 | 1009.7 |
| 20260504043617 | 53 | 346 | 2.0 | 4.0 | 0.00 | 0.00 | 0.00 | 47 | 1009.8 |
| 20260504042648 | 54 | 286 | 2.0 | 7.0 | 0.00 | 0.00 | 0.00 | 41 | 1009.7 |
| 20260504041622 | 52 | 294 | 3.0 | 4.0 | 0.00 | 0.00 | 0.00 | 50 | 1009.7 |
| 20260504040613 | 53 | 40 | 3.0 | 5.0 | 0.00 | 0.00 | 0.00 | 45 | 1009.7 |
| 20260504035614 | 56 | 284 | 0.0 | 4.0 | 0.00 | 0.00 | 0.00 | 39 | 1009.6 |
| 20260504034625 | 54 | 277 | 1.0 | 5.0 | 0.00 | 0.00 | 0.00 | 41 | 1009.6 |
| 20260504033639 | 50 | 304 | 3.0 | 5.0 | 0.00 | 0.00 | 0.00 | 52 | 1009.6 |
| 20260504032625 | 51 | 350 | 3.0 | 5.0 | 0.00 | 0.00 | 0.00 | 53 | 1009.6 |
| 20260504031630 | 56 | 39 | 3.0 | 4.0 | 0.00 | 0.00 | 0.00 | 43 | 1009.4 |
| 20260504030638 | 61 | 56 | 1.0 | 4.0 | 0.00 | 0.00 | 0.00 | 33 | 1009.3 |
| 20260504025612 | 65 | 244 | 4.0 | 7.0 | 0.00 | 0.00 | 0.00 | 23 | 1009.2 |
| 20260504024633 | 65 | 236 | 4.0 | 7.0 | 0.00 | 0.00 | 0.00 | 23 | 1009.2 |
| 20260504023622 | 64 | 246 | 4.0 | 7.0 | 0.00 | 0.00 | 0.00 | 26 | 1009.2 |
| 20260504022613 | 65 | 245 | 5.0 | 7.0 | 0.00 | 0.00 | 0.00 | 25 | 1009.2 |
| 20260504021641 | 67 | 243 | 4.0 | 5.0 | 0.00 | 0.00 | 0.00 | 23 | 1009.3 |
| 20260504020632 | 66 | 240 | 5.0 | 7.0 | 0.00 | 0.00 | 0.00 | 26 | 1009.4 |
| 20260504015630 | 66 | 245 | 4.0 | 7.0 | 0.00 | 0.00 | 0.00 | 25 | 1009.4 |
| 20260504014638 | 69 | 244 | 3.0 | 6.0 | 0.00 | 0.00 | 0.00 | 26 | 1009.4 |
| 20260504013646 | 71 | 228 | 4.0 | 6.0 | 0.00 | 0.00 | 0.00 | 21 | 1009.5 |
| 20260504012612 | 72 | 215 | 2.0 | 4.0 | 0.00 | 0.00 | 0.00 | 20 | 1009.7 |
| 20260504011625 | 72 | 220 | 4.0 | 5.0 | 0.00 | 0.00 | 0.00 | 21 | 1009.7 |
| 20260504010613 | 71 | 205 | 2.0 | 4.0 | 0.00 | 0.00 | 0.00 | 25 | 1009.9 |
| 20260504005614 | 71 | 143 | 4.0 | 5.0 | 0.00 | 0.00 | 0.00 | 25 | 1009.9 |
| 20260504004623 | 72 | 156 | 4.0 | 7.0 | 0.00 | 0.00 | 0.00 | 24 | 1010.1 |
| 20260504003617 | 72 | 165 | 4.0 | 7.0 | 0.00 | 0.00 | 0.00 | 20 | 1010.1 |
| 20260504002626 | 72 | 155 | 3.0 | 8.0 | 0.00 | 0.00 | 0.00 | 23 | 1010.1 |
| 20260504001615 | 73 | 150 | 4.0 | 10.0 | 0.00 | 0.00 | 0.00 | 19 | 1010.2 |
| 20260504000626 | 74 | 177 | 5.0 | 10.0 | 0.00 | 0.00 | 0.00 | 19 | 1010.2 |
| 20260503235652 | 75 | 143 | 5.0 | 9.0 | 0.00 | 0.00 | 0.00 | 20 | 1010.3 |
| 20260503234621 | 75 | 151 | 3.0 | 8.0 | 0.00 | 0.00 | 0.00 | 16 | 1010.4 |
| 20260503233632 | 75 | 186 | 4.0 | 12.0 | 0.00 | 0.00 | 0.00 | 16 | 1010.5 |
| 20260503232620 | 74 | 136 | 5.0 | 13.0 | 0.00 | 0.00 | 0.00 | 20 | 1010.5 |
| 20260503231614 | 74 | 126 | 5.0 | 14.0 | 0.00 | 0.00 | 0.00 | 20 | 1010.5 |
| 20260503230622 | 75 | 141 | 3.0 | 10.0 | 0.00 | 0.00 | 0.00 | 18 | 1010.7 |
| 20260503225622 | 74 | 121 | 3.0 | 7.0 | 0.00 | 0.00 | 0.00 | 22 | 1010.9 |
| 20260503224615 | 74 | 169 | 1.0 | 9.0 | 0.00 | 0.00 | 0.00 | 15 | 1011.0 |
| 20260503223625 | 74 | 144 | 5.0 | 11.0 | 0.00 | 0.00 | 0.00 | 16 | 1011.2 |
| 20260503222615 | 74 | 138 | 6.0 | 15.0 | 0.00 | 0.00 | 0.00 | 17 | 1011.3 |
| 20260503221644 | 74 | 162 | 6.0 | 11.0 | 0.00 | 0.00 | 0.00 | 17 | 1011.4 |
| 20260503220617 | 75 | 159 | 7.0 | 10.0 | 0.00 | 0.00 | 0.00 | 17 | 1011.6 |
| 20260503215619 | 74 | 184 | 6.0 | 11.0 | 0.00 | 0.00 | 0.00 | 18 | 1011.8 |
| 20260503214629 | 74 | 207 | 9.0 | 12.0 | 0.00 | 0.00 | 0.00 | 17 | 1012.0 |
| 20260503213620 | 75 | 197 | 5.0 | 15.0 | 0.00 | 0.00 | 0.00 | 21 | 1012.1 |
| 20260503212616 | 75 | 201 | 10.0 | 15.0 | 0.00 | 0.00 | 0.00 | 16 | 1012.3 |
| 20260503211627 | 75 | 188 | 8.0 | 12.0 | 0.00 | 0.00 | 0.00 | 17 | 1012.3 |
| 20260503210618 | 75 | 169 | 11.0 | 13.0 | 0.00 | 0.00 | 0.00 | 14 | 1012.5 |
| 20260503205620 | 75 | 182 | 9.0 | 18.0 | 0.00 | 0.00 | 0.00 | 21 | 1012.6 |
| 20260503204613 | 74 | 180 | 7.0 | 13.0 | 0.00 | 0.00 | 0.00 | 18 | 1012.7 |
| 20260503203622 | 75 | 173 | 8.0 | 14.0 | 0.00 | 0.00 | 0.00 | 19 | 1012.9 |
| 20260503202631 | 75 | 166 | 8.0 | 13.0 | 0.00 | 0.00 | 0.00 | 20 | 1013.0 |
| 20260503201620 | 74 | 160 | 8.0 | 11.0 | 0.00 | 0.00 | 0.00 | 21 | 1013.2 |
| 20260503200613 | 74 | 168 | 9.0 | 13.0 | 0.00 | 0.00 | 0.00 | 20 | 1013.4 |
| 20260503195617 | 74 | 220 | 6.0 | 12.0 | 0.00 | 0.00 | 0.00 | 22 | 1013.4 |
| 20260503194627 | 73 | 155 | 4.0 | 12.0 | 0.00 | 0.00 | 0.00 | 23 | 1013.7 |
| 20260503193618 | 72 | 219 | 9.0 | 12.0 | 0.00 | 0.00 | 0.00 | 23 | 1013.7 |
| 20260503192612 | 73 | 199 | 6.0 | 11.0 | 0.00 | 0.00 | 0.00 | 24 | 1014.0 |
| 20260503191623 | 72 | 145 | 7.0 | 12.0 | 0.00 | 0.00 | 0.00 | 27 | 1014.0 |
| 20260503190632 | 71 | 186 | 8.0 | 12.0 | 0.00 | 0.00 | 0.00 | 26 | 1014.2 |
| 20260503185651 | 71 | 180 | 9.0 | 12.0 | 0.00 | 0.00 | 0.00 | 25 | 1014.5 |
| 20260503184624 | 71 | 163 | 6.0 | 10.0 | 0.00 | 0.00 | 0.00 | 28 | 1014.6 |
| 20260503183614 | 70 | 128 | 4.0 | 11.0 | 0.00 | 0.00 | 0.00 | 27 | 1014.7 |
| 20260503182622 | 70 | 167 | 6.0 | 11.0 | 0.00 | 0.00 | 0.00 | 24 | 1014.9 |
| 20260503181615 | 70 | 188 | 7.0 | 11.0 | 0.00 | 0.00 | 0.00 | 27 | 1015.0 |
| 20260503180626 | 69 | 166 | 8.0 | 14.0 | 0.00 | 0.00 | 0.00 | 27 | 1015.1 |
| 20260503175624 | 69 | 176 | 7.0 | 10.0 | 0.00 | 0.00 | 0.00 | 26 | 1015.2 |
| 20260503174652 | 67 | 142 | 3.0 | 6.0 | 0.00 | 0.00 | 0.00 | 35 | 1015.3 |
| 20260503173620 | 65 | 98 | 3.0 | 7.0 | 0.00 | 0.00 | 0.00 | 37 | 1015.3 |